DL1MMS-10 Weather Reports


Display with metric or nautical units.
time (UTC)temp
F
wind
direction
speed
MPH
gust
MPH
rain 1hr
in
rain 24hr
in
rain mn
in
humidity
%
barometer
mb
20260503214544 57 0 0.0 0.0 0.00 0.00 0.00 55 1016.2
20260503214043 57 0 0.0 0.0 0.00 0.00 0.00 55 1016.2
20260503213543 58 0 0.0 0.0 0.00 0.00 0.00 55 1016.1
20260503213043 58 0 0.0 0.0 0.00 0.00 0.00 54 1016.1
20260503212543 58 0 0.0 0.0 0.00 0.00 0.00 54 1016.2
20260503212042 58 0 0.0 0.0 0.00 0.00 0.00 53 1016.0
20260503211542 58 0 0.0 0.0 0.00 0.00 0.00 53 1016.1
20260503211042 58 0 0.0 0.0 0.00 0.00 0.00 53 1016.0
20260503210542 59 0 0.0 0.0 0.00 0.00 0.00 53 1015.9
20260503210041 59 0 0.0 0.0 0.00 0.00 0.00 52 1015.8
20260503205541 59 0 0.0 0.0 0.00 0.00 0.00 52 1015.9
20260503205041 59 0 0.0 0.0 0.00 0.00 0.00 52 1015.8
20260503204540 59 0 0.0 0.0 0.00 0.00 0.00 52 1015.7
20260503204040 60 0 0.0 0.0 0.00 0.00 0.00 51 1016.0
20260503203540 60 0 0.0 0.0 0.00 0.00 0.00 51 1015.9
20260503203040 60 0 0.0 0.0 0.00 0.00 0.00 51 1015.7
20260503202539 60 0 0.0 0.0 0.00 0.00 0.00 51 1015.7
20260503202039 60 0 0.0 0.0 0.00 0.00 0.00 51 1015.7
20260503201539 60 0 0.0 0.0 0.00 0.00 0.00 51 1015.6
20260503201038 61 0 0.0 0.0 0.00 0.00 0.00 51 1015.5
20260503200538 61 0 0.0 0.0 0.00 0.00 0.00 51 1015.4
20260503200038 61 0 0.0 0.0 0.00 0.00 0.00 51 1015.5
20260503195538 61 0 0.0 0.0 0.00 0.00 0.00 50 1015.4
20260503195037 61 0 0.0 0.0 0.00 0.00 0.00 50 1015.3
20260503194537 61 0 0.0 0.0 0.00 0.00 0.00 51 1015.1
20260503194037 60 0 0.0 0.0 0.00 0.00 0.00 51 1015.1
20260503193536 60 0 0.0 0.0 0.00 0.00 0.00 51 1014.9
20260503193036 60 0 0.0 0.0 0.00 0.00 0.00 51 1015.1
20260503192536 60 0 0.0 0.0 0.00 0.00 0.00 51 1015.0
20260503192036 61 0 0.0 0.0 0.00 0.00 0.00 50 1014.7
20260503191535 61 0 0.0 0.0 0.00 0.00 0.00 50 1014.6
20260503191035 61 0 0.0 0.0 0.00 0.00 0.00 50 1014.6
20260503190535 62 0 0.0 0.0 0.00 0.00 0.00 49 1014.6
20260503190034 62 0 0.0 0.0 0.00 0.00 0.00 49 1014.5
20260503185534 63 0 0.0 0.0 0.00 0.00 0.00 48 1014.4
20260503185034 64 0 0.0 0.0 0.00 0.00 0.00 47 1014.5
20260503184534 64 0 0.0 0.0 0.00 0.00 0.00 45 1014.5
20260503184033 65 0 0.0 0.0 0.00 0.00 0.00 45 1014.3
20260503183533 66 0 0.0 0.0 0.00 0.00 0.00 43 1014.2
20260503183033 66 0 0.0 0.0 0.00 0.00 0.00 42 1014.3
20260503182532 67 0 0.0 0.0 0.00 0.00 0.00 41 1014.4
20260503182032 68 0 0.0 0.0 0.00 0.00 0.00 40 1014.2
20260503181532 69 0 0.0 0.0 0.00 0.00 0.00 38 1014.2
20260503181032 69 0 0.0 0.0 0.00 0.00 0.00 36 1014.2
20260503180531 70 0 0.0 0.0 0.00 0.00 0.00 35 1014.3
20260503180031 71 0 0.0 0.0 0.00 0.00 0.00 33 1014.2
20260503175531 71 0 0.0 0.0 0.00 0.00 0.00 32 1014.2
20260503175030 72 0 0.0 0.0 0.00 0.00 0.00 31 1014.2
20260503174530 72 0 0.0 0.0 0.00 0.00 0.00 30 1014.1
20260503174030 73 0 0.0 0.0 0.00 0.00 0.00 30 1014.1
20260503173530 74 0 0.0 0.0 0.00 0.00 0.00 29 1014.0
20260503173031 75 0 0.0 0.0 0.00 0.00 0.00 29 1014.2
20260503172529 75 0 0.0 0.0 0.00 0.00 0.00 28 1014.3
20260503172029 76 0 0.0 0.0 0.00 0.00 0.00 28 1014.2
20260503171528 77 0 0.0 0.0 0.00 0.00 0.00 27 1014.3
20260503171028 77 0 0.0 0.0 0.00 0.00 0.00 26 1014.3
20260503170528 78 0 0.0 0.0 0.00 0.00 0.00 25 1014.3
20260503150521 83 0 0.0 0.0 0.00 0.00 0.00 25 1014.1
20260503131015 89 0 0.0 0.0 0.00 0.00 0.00 22 1014.8
20260503130514 88 0 0.0 0.0 0.00 0.00 0.00 23 1014.9
20260503110508 94 0 0.0 0.0 0.00 0.00 0.00 25 1015.5
20260503090501 69 0 0.0 0.0 0.00 0.00 0.00 40 1016.5
20260503081458 67 0 0.0 0.0 0.00 0.00 0.00 46 1016.8
20260503080958 66 0 0.0 0.0 0.00 0.00 0.00 48 1016.8
20260503080457 66 0 0.0 0.0 0.00 0.00 0.00 50 1016.8
20260503072455 60 0 0.0 0.0 0.00 0.00 0.00 66 1016.9
20260503071955 59 0 0.0 0.0 0.00 0.00 0.00 68 1017.0
20260503071455 58 0 0.0 0.0 0.00 0.00 0.00 68 1016.9
20260503070954 58 0 0.0 0.0 0.00 0.00 0.00 69 1017.1
20260503070454 57 0 0.0 0.0 0.00 0.00 0.00 69 1017.0
20260503054950 48 0 0.0 0.0 0.00 0.00 0.00 79 1017.2
20260503054449 48 0 0.0 0.0 0.00 0.00 0.00 79 1017.2
20260503053949 48 0 0.0 0.0 0.00 0.00 0.00 79 1017.2
20260503053449 47 0 0.0 0.0 0.00 0.00 0.00 80 1017.2
20260503052949 46 0 0.0 0.0 0.00 0.00 0.00 80 1017.2
20260503052448 46 0 0.0 0.0 0.00 0.00 0.00 80 1017.3
20260503051948 46 0 0.0 0.0 0.00 0.00 0.00 80 1017.3
20260503051448 45 0 0.0 0.0 0.00 0.00 0.00 80 1017.3
20260503050947 45 0 0.0 0.0 0.00 0.00 0.00 80 1017.3
20260503050447 44 0 0.0 0.0 0.00 0.00 0.00 79 1017.3
20260503045947 44 0 0.0 0.0 0.00 0.00 0.00 79 1017.3
20260503045447 44 0 0.0 0.0 0.00 0.00 0.00 79 1017.3
20260503044946 44 0 0.0 0.0 0.00 0.00 0.00 79 1017.3
20260503044446 44 0 0.0 0.0 0.00 0.00 0.00 79 1017.3
20260503043946 43 0 0.0 0.0 0.00 0.00 0.00 79 1017.3
20260503043445 43 0 0.0 0.0 0.00 0.00 0.00 79 1017.3
20260503042945 43 0 0.0 0.0 0.00 0.00 0.00 79 1017.3
20260503042445 43 0 0.0 0.0 0.00 0.00 0.00 79 1017.3
20260503041945 43 0 0.0 0.0 0.00 0.00 0.00 79 1017.3
20260503041444 43 0 0.0 0.0 0.00 0.00 0.00 79 1017.3
20260503040944 43 0 0.0 0.0 0.00 0.00 0.00 79 1017.3
20260503040444 43 0 0.0 0.0 0.00 0.00 0.00 79 1017.2
20260503035943 43 0 0.0 0.0 0.00 0.00 0.00 78 1017.3
20260503035443 43 0 0.0 0.0 0.00 0.00 0.00 78 1017.3
20260503034943 42 0 0.0 0.0 0.00 0.00 0.00 78 1017.3
20260503034443 42 0 0.0 0.0 0.00 0.00 0.00 78 1017.4
20260503033942 42 0 0.0 0.0 0.00 0.00 0.00 78 1017.2
20260503033442 42 0 0.0 0.0 0.00 0.00 0.00 78 1017.2
20260503032942 43 0 0.0 0.0 0.00 0.00 0.00 78 1017.3
20260503032441 43 0 0.0 0.0 0.00 0.00 0.00 78 1017.3
20260503031941 43 0 0.0 0.0 0.00 0.00 0.00 78 1017.3
20260503031441 43 0 0.0 0.0 0.00 0.00 0.00 78 1017.6
20260503030941 43 0 0.0 0.0 0.00 0.00 0.00 78 1017.5
20260503030440 43 0 0.0 0.0 0.00 0.00 0.00 77 1017.5
20260503025940 43 0 0.0 0.0 0.00 0.00 0.00 76 1017.6
20260503025440 43 0 0.0 0.0 0.00 0.00 0.00 76 1017.6
20260503024939 44 0 0.0 0.0 0.00 0.00 0.00 76 1017.7
20260503024439 44 0 0.0 0.0 0.00 0.00 0.00 76 1017.7
20260503023939 44 0 0.0 0.0 0.00 0.00 0.00 76 1017.8
20260503023439 44 0 0.0 0.0 0.00 0.00 0.00 76 1017.7
20260503022938 44 0 0.0 0.0 0.00 0.00 0.00 76 1017.7
20260503022438 44 0 0.0 0.0 0.00 0.00 0.00 76 1017.7
20260503021938 44 0 0.0 0.0 0.00 0.00 0.00 76 1017.7
20260503021437 44 0 0.0 0.0 0.00 0.00 0.00 76 1017.8
20260503020937 44 0 0.0 0.0 0.00 0.00 0.00 76 1017.7
20260503020437 44 0 0.0 0.0 0.00 0.00 0.00 76 1017.7
20260503015937 44 0 0.0 0.0 0.00 0.00 0.00 76 1017.7
20260503015436 44 0 0.0 0.0 0.00 0.00 0.00 75 1017.6
20260503014936 44 0 0.0 0.0 0.00 0.00 0.00 75 1017.6
20260503014436 45 0 0.0 0.0 0.00 0.00 0.00 75 1017.6
20260503013936 45 0 0.0 0.0 0.00 0.00 0.00 75 1017.6
20260503013435 45 0 0.0 0.0 0.00 0.00 0.00 75 1017.6
20260503012935 45 0 0.0 0.0 0.00 0.00 0.00 75 1017.6
20260503012435 45 0 0.0 0.0 0.00 0.00 0.00 75 1017.6
20260503011934 45 0 0.0 0.0 0.00 0.00 0.00 75 1017.6
20260503011434 45 0 0.0 0.0 0.00 0.00 0.00 75 1017.6
20260503010934 45 0 0.0 0.0 0.00 0.00 0.00 75 1017.6
20260503010434 45 0 0.0 0.0 0.00 0.00 0.00 75 1017.6
20260503005933 45 0 0.0 0.0 0.00 0.00 0.00 75 1017.6
20260503005433 45 0 0.0 0.0 0.00 0.00 0.00 74 1017.7
20260503004933 45 0 0.0 0.0 0.00 0.00 0.00 74 1017.7
20260503004432 46 0 0.0 0.0 0.00 0.00 0.00 74 1017.7
20260503003932 46 0 0.0 0.0 0.00 0.00 0.00 73 1017.8
20260503003432 46 0 0.0 0.0 0.00 0.00 0.00 72 1017.9
20260503002932 46 0 0.0 0.0 0.00 0.00 0.00 72 1017.9
20260503002431 46 0 0.0 0.0 0.00 0.00 0.00 72 1018.0
20260503001931 47 0 0.0 0.0 0.00 0.00 0.00 72 1017.9
20260503001431 47 0 0.0 0.0 0.00 0.00 0.00 71 1018.0
20260503000930 47 0 0.0 0.0 0.00 0.00 0.00 71 1018.0
20260503000430 47 0 0.0 0.0 0.00 0.00 0.00 71 1018.0
20260502235930 47 0 0.0 0.0 0.00 0.00 0.00 70 1018.1
20260502235430 47 0 0.0 0.0 0.00 0.00 0.00 70 1018.1
20260502234929 47 0 0.0 0.0 0.00 0.00 0.00 70 1018.1
20260502234429 48 0 0.0 0.0 0.00 0.00 0.00 70 1018.1
20260502233929 48 0 0.0 0.0 0.00 0.00 0.00 70 1018.1
20260502233428 48 0 0.0 0.0 0.00 0.00 0.00 69 1018.1
20260502232928 48 0 0.0 0.0 0.00 0.00 0.00 68 1018.1
20260502232428 48 0 0.0 0.0 0.00 0.00 0.00 68 1018.1
20260502231928 48 0 0.0 0.0 0.00 0.00 0.00 68 1018.1
20260502231427 49 0 0.0 0.0 0.00 0.00 0.00 68 1018.1
20260502230927 49 0 0.0 0.0 0.00 0.00 0.00 68 1018.2
20260502230427 49 0 0.0 0.0 0.00 0.00 0.00 68 1018.2
20260502225926 49 0 0.0 0.0 0.00 0.00 0.00 68 1018.1
20260502225426 49 0 0.0 0.0 0.00 0.00 0.00 68 1018.2
20260502224926 49 0 0.0 0.0 0.00 0.00 0.00 69 1018.1
20260502224426 49 0 0.0 0.0 0.00 0.00 0.00 68 1018.2
20260502223925 49 0 0.0 0.0 0.00 0.00 0.00 68 1018.2
20260502223425 49 0 0.0 0.0 0.00 0.00 0.00 68 1018.2
20260502222925 49 0 0.0 0.0 0.00 0.00 0.00 68 1018.4
20260502222424 49 0 0.0 0.0 0.00 0.00 0.00 67 1018.4
20260502221924 49 0 0.0 0.0 0.00 0.00 0.00 67 1018.4
20260502221424 50 0 0.0 0.0 0.00 0.00 0.00 67 1018.4
20260502220924 50 0 0.0 0.0 0.00 0.00 0.00 67 1018.4
20260502220423 51 0 0.0 0.0 0.00 0.00 0.00 66 1018.4
20260502215923 51 0 0.0 0.0 0.00 0.00 0.00 65 1018.4
20260502215423 51 0 0.0 0.0 0.00 0.00 0.00 64 1018.4
20260502214923 51 0 0.0 0.0 0.00 0.00 0.00 63 1018.5